Location: Brno
(49.2000°N, 16.6330°E)
Time: 21:45:50
(UTC+02:00)

ISS - Visible Passes

Search period start: 28 September 2020 00:00
Search period end: 08 October 2020 00:00
Orbit: 419 x 421 km, 51.6° (Epoch: 29 September)

Date Brightness Start Highest point End Pass type
(mag) Time Alt. Az. Time Alt. Az. Time Alt. Az.
28 Sep -3.6 20:14:58 10° WNW 20:18:19 63° N 20:19:09 44° ENE visible
28 Sep -0.4 21:51:52 10° WNW 21:52:07 12° WNW 21:52:07 12° WNW visible
29 Sep -3.4 19:27:40 10° WNW 19:31:00 56° N 19:33:39 15° E visible
29 Sep -2.1 21:04:34 10° WNW 21:06:37 33° W 21:06:37 33° W visible
30 Sep -3.9 20:17:16 10° WNW 20:20:39 85° SSW 20:21:10 62° ESE visible
01 Oct -3.7 19:29:58 10° WNW 19:33:22 76° NNE 19:35:42 18° E visible
01 Oct -1.5 21:07:00 10° W 21:08:41 22° WSW 21:08:41 22° WSW visible
02 Oct -3.0 20:19:35 10° WNW 20:22:49 43° SSW 20:23:17 40° S visible
03 Oct -3.4 19:32:13 10° WNW 19:35:34 62° SSW 19:37:56 18° SE visible
03 Oct -0.8 21:10:05 10° WSW 21:10:54 12° WSW 21:10:54 12° WSW visible
04 Oct -1.7 20:22:10 10° W 20:24:45 20° SW 20:25:38 18° SSW visible
05 Oct -2.1 19:34:34 10° W 19:37:34 29° SW 19:40:27 11° SSE visible
06 Oct -2.6 18:47:07 10° WNW 18:50:20 43° SSW 18:53:33 10° SE visible
07 Oct -0.9 19:37:36 10° WSW 19:39:21 13° SW 19:41:04 10° SSW visible
